COSMOS 1720

Satellite information

Favourite Embed

Satellite Type and Status

PAYLOADIN ORBIT

Key statistics

Satellite COSMOS 1720 at a glance.

Uptime

14589

Days in orbit

Revolutions

≈ 12.5

Per day

Orbit

LEO

Low Earth Orbit

Inclination

74.0

Latest

Satellite identification and parameters

Extended collection of information and parameters for COSMOS 1720.

Object identification

Identified? True

Debris? False

Object name: COSMOS 1720

International designator: 1986-002E

Object number (NORAD): 16453

Object ID (CCSDS): 16453

Country: COMMONWEALTH OF INDEPENDENT STATES (CIS)

Current information (Y/N): Y

RCS size: MEDIUM

Orbital parameters

Period: 115.142 minutes

Inclination: 73.9868 deg

SMA: 7839.987 km

Apoapsis: 1483.931 km

Periapsis: 1439.772 km

RAAN: 144.117 deg

Eccentricy: 0.00281625

Argument of periapsis: 201.0015 deg

Mean anomaly: 273.4303 deg

Mean motion: 12.50632728 rev/day

Mean motion (dot): -0.00000019 rev/day2

B* drag term: -0.000016612097 1/REarth

Two-line elements (TLE)

Creation date: Dec. 19, 2025, 2:08 a.m.

Reference frame: TEME

Reference center: EARTH

Epoch: Dec. 18, 2025, 9:25 p.m. UTC

TLE line 0: 0 COSMOS 1720

TLE line 1: 1 16453U 86002E 25352.89245008 -.00000019 00000-0 -16612-4 0 9990

TLE line 2: 2 16453 73.9868 144.1170 0028162 201.0015 273.4303 12.50632728823582

Live tracking on map

Real-time ground track for satellite COSMOS 1720.

In-orbit conjunctions

A list of the most updated potential collisions computed for object COSMOS 1720.

Target Orbit TCA Probability of collision Miss distance Type
MAGION 5 HEO 2025-05-14 03:43:58 0.001364358 336.0 (m) PAYLOAD

Associated space launch

Military communications satellites

COSMOS 1720 was lifted into orbit during the mission ‘Kosmos-3M | Strela-1M 297-304’, on board a Kosmos-3M space rocket.

The launch took place on Jan. 9, 1986, 2:48 a.m. from 132/2.

For more information about the launch, click the button.

Launch to space Kosmos-3M | Strela-1M 297-304
Kosmos-3M | Strela-1M 297-304

Agency: N/A

Status: Launch Successful

Launch date: Jan. 9, 1986, 2:48 a.m. UTC

Rocket: Kosmos-3M

Launch pad: 132/2

Location: Plesetsk Cosmodrome, Russian Federation

...

Latest news about this satellite

There are no fresh news available about this satellite. Check back as we update our databases every day.


Newsletter sign-up

Weekly statistics, charts and insights to help you stay on top of the space industry.